Regional Weather Roundup
Issued by NWS Sterling, VA

Home | Current Version | Previous Version | Graphics & Text | Print | Product List | Glossary On
Versions: 1 2 3 4 5 6 7 8 9 10 11 12 13 14 15 16 17 18 19 20 21 22 23 24 25 26 27 28 29 30 31 32 33 34 35 36 37 38 39 40 41 42 43 44 45 46 47 48 49 50
000
ASUS41 KLWX 050110
RWRLWX

REGIONAL WEATHER ROUNDUP
NATIONAL WEATHER SERVICE BALTIMORE MD/WASHINGTON DC
800 PM EST THU FEB 04 2016

Note: "FAIR" indicates few or no clouds below 12,000 feet
with no significant weather and/or obstructions to visibility.
 TC=TEMPERATURE CELSIUS

 * =Non NWS site. Station does not report precipitation (e.g. rain,
    snow, etc.), thunder, or fog.

DCZ001-MDZ009-015-VAZ040>042-051-053>054-050200-
WASHINGTON METRO

CITY           SKY/WX    TMP DP  RH WIND       PRES   REMARKS
WASHINGTON NAT CLOUDY    46  30  53 NW14      30.12R
DULLES         CLOUDY    43  28  55 N12       30.13R
ANDREWS AFB    CLOUDY    45  31  58 N17       30.09S
FT BELVOIR     CLOUDY    46  28  49 VRB7      30.10F
QUANTICO       CLOUDY    48  29  47 N16G25    30.12R
COLLEGE PARK*  CLOUDY    45  30  57 N8        30.11R
LEESBURG*      CLOUDY    43  32  65 N7        30.14R
GAITHERSBURG*  MOCLDY    39  27  60 NW3       30.16R

$$

MDZ006>007-011-014-050200-
BALTIMORE METRO

CITY           SKY/WX    TMP DP  RH WIND       PRES   REMARKS
BWI AIRPORT    CLOUDY    44  28  53 NW8       30.10S
MD SCIENCE CTR   N/A     46  27  47 MISG      30.10S
MARTIN STATE   CLOUDY    45  32  61 NW10      30.12S
ANNAPOLIS      CLOUDY    45  31  58 N9        30.10S
FORT MEADE*    CLOUDY    43  30  61 NW6       30.13R

$$

MDZ012-015-019>023-050200-
MARYLAND EASTERN SHORE

CITY           SKY/WX    TMP DP  RH WIND       PRES   REMARKS
OCEAN CITY     LGT RAIN  42  40  92 N9        30.07S
SALISBURY      LGT RAIN  42  40  92 N6        30.08S FOG
BAY BRIDGE AP*   N/A     43  32  65 CALM      30.11R
CAMBRIDGE*     CLOUDY    41  39  93 CALM      30.08S
EASTON*        CLOUDY    45  32  61 N6        30.13

$$

MDZ017>025-050200-
SOUTHERN MARYLAND

CITY           SKY/WX    TMP DP  RH WIND       PRES   REMARKS
PATUXENT RIVER LGT RAIN  43  38  82 N5        30.09R
ST INIGOES     LGT RAIN  43  40  89 N3        30.07F
LEONARDTOWN*   CLOUDY    43  36  75 CALM      30.09F

$$

MDZ003>005-050200-
NORTH CENTRAL MARYLAND

CITY           SKY/WX    TMP DP  RH WIND       PRES   REMARKS
FREDERICK*     CLOUDY    41  32  70 NW5       30.16R
HAGERSTOWN APT CLOUDY    39  25  57 NW8       30.14R
WESTMINSTER*   CLOUDY    39  36  87 NW3       30.11R

$$

MDZ501>502-050200-
WESTERN MARYLAND

CITY           SKY/WX    TMP DP  RH WIND       PRES   REMARKS
OAKLAND*       CLOUDY    28  23  80 NW6       30.09R
CUMBERLAND*    CLOUDY    39  25  56 NW3       30.21R

$$

VAZ025>031-050200-
SHENANDOAH VALLEY

CITY           SKY/WX    TMP DP  RH WIND       PRES   REMARKS
WINCHESTER*    MOCLDY    37  28  70 NW3       30.13R
FRONT ROYAL*   FAIR      37  28  70 N6        30.13R
LURAY*         MOCLDY    37  28  70 NE8       30.11S
NEW MARKET*    CLOUDY    38  28  68 NE3       30.11S
STAUNTON*      CLOUDY    44  30  58 N13G18    30.11R
WAYNESBORO*    CLOUDY    42  29  60 N5        30.07S

$$

WVZ021-048>050-054>055-050200-
EASTERN WEST VIRGINIA PANHANDLE

CITY           SKY/WX    TMP DP  RH WIND       PRES   REMARKS
MARTINSBURG    FAIR      39  25  57 N8        30.15R
PETERSBURG*    CLOUDY    40  26  56 CALM      30.15R

$$

VAZ036>039-050-050200-
CENTRAL FOOTHILLS

CITY           SKY/WX    TMP DP  RH WIND       PRES   REMARKS
CHARLOTTESVILL CLOUDY    45  29  53 NE9       30.08S
CULPEPER*      CLOUDY    42  30  62 N7        30.12F
ORANGE*        CLOUDY    45  32  61 N7        30.12R
GORDONSVILLE*  CLOUDY    44  31  60 NE15G22   30.08F
WARRENTON*     CLOUDY    44  33  65 N10       30.11S

$$

VAZ055>057-050200-
NORTH AND CENTRAL PIEDMONT

CITY           SKY/WX    TMP DP  RH WIND       PRES   REMARKS
FREDERICKSBRG* CLOUDY    46  32  57 N13       30.09F
STAFFORD*      CLOUDY    44  30  57 N10G16    30.14F

$$

NCZ024-NYZ072-PAZ021-071-VAZ022-071-050200-
OTHER REGIONAL OBSERVATIONS

CITY           SKY/WX    TMP DP  RH WIND       PRES   REMARKS
NEW YORK CITY  CLOUDY    49  28  44 CALM      30.08F
PHILADELPHIA   CLOUDY    46  30  52 N7        30.06F
PITTSBURGH     CLOUDY    33  22  63 W7        30.17R
ROANOKE        MOCLDY    43  26  51 NW15      30.11R
RICHMOND       CLOUDY    42  40  92 NE6       30.08S
RALEIGH        DRIZZLE   47  45  93 NE9       30.03F FOG

$$

ANZ530>537-050200-
MARINE OBSERVATIONS

STATION/POSITION TIME  TEMP    WIND        PRES
                       AIR SEA DIR/SP/G
                 (UTC) (F)     (DEG/KT/KT) (MB)
THOMAS PT LIGHT  NOT AVBL
BALT KEY BRIDGE  0000   46     340/ 10/ 12 1019.4
COVE POINT       0000   42      40/  6/  8 1019.2
LEWISETTA        0000   42 45   40/  3/  5 1018.6
SOLOMONS ISLAND  0000   44 41   50/  2/  3   N/A

$$




USA.gov is the U.S. government's official web portal to all federal, state and local government web resources and services.